FW6877 Weather Reports


Display with metric or nautical units.
time (UTC)temp
F
wind
direction
speed
MPH
gust
MPH
rain 1hr
in
rain 24hr
in
rain mn
in
humidity
%
barometer
mb
20240415065146 94 0.0 0.0 0.00 0.00 0.00 50 965.2
20240415064140 93 0.0 0.0 0.00 0.00 0.00 50 965.6
20240415063118 93 0.0 0.0 0.00 0.00 0.00 51 965.9
20240415062056 93 0.0 0.0 0.00 0.00 0.00 52 966.1
20240415061050 93 0.0 0.0 0.00 0.00 0.00 51 966.4
20240415060028 93 0.0 0.0 0.00 0.00 0.00 51 966.6
20240415055022 91 0.0 0.0 0.00 0.00 0.00 53 966.8
20240415054017 93 0.0 0.0 0.00 0.00 0.00 52 967.0
20240415053010 92 0.0 0.0 0.00 0.00 0.00 53 967.1
20240415051933 93 0.0 0.0 0.00 0.00 0.00 52 967.4
20240415050926 92 0.0 0.0 0.00 0.00 0.00 52 967.7
20240415045905 92 0.0 0.0 0.00 0.00 0.00 53 967.8
20240415044859 92 0.0 0.0 0.00 0.00 0.00 52 968.0
20240415043853 92 0.0 0.0 0.00 0.00 0.00 52 968.1
20240415042831 90 0.0 0.0 0.00 0.00 0.00 54 968.2
20240415041810 89 0.0 0.0 0.00 0.00 0.00 56 968.3
20240415040804 88 0.0 0.0 0.00 0.00 0.00 57 968.5
20240415035758 89 0.0 0.0 0.00 0.00 0.00 57 968.6
20240415034721 90 0.0 0.0 0.00 0.00 0.00 55 968.6
20240415033715 89 0.0 0.0 0.00 0.00 0.00 56 968.6
20240415032709 88 0.0 0.0 0.00 0.00 0.00 58 968.6
20240415031703 87 0.0 0.0 0.00 0.00 0.00 59 968.9
20240415030657 87 0.0 0.0 0.00 0.00 0.00 59 969.0
20240415025650 87 0.0 0.0 0.00 0.00 0.00 60 968.9
20240415024644 86 0.0 0.0 0.00 0.00 0.00 62 969.0
20240415023637 86 0.0 0.0 0.00 0.00 0.00 62 969.1
20240415022631 86 0.0 0.0 0.00 0.00 0.00 63 969.1
20240415021625 85 0.0 0.0 0.00 0.00 0.00 64 969.2
20240415020619 85 0.0 0.0 0.00 0.00 0.00 63 969.2
20240415015613 84 0.0 0.0 0.00 0.00 0.00 65 969.0
20240414131031 91 0.0 0.0 0.00 0.00 0.00 65 963.9
20240414130025 92 0.0 0.0 0.00 0.00 0.00 62 963.6
20240414125018 92 0.0 0.0 0.00 0.00 0.00 63 963.3
20240414124012 92 0.0 0.0 0.00 0.00 0.00 60 963.6
20240414123006 92 0.0 0.0 0.00 0.00 0.00 61 963.5
20240414121959 92 0.0 0.0 0.00 0.00 0.00 59 963.3
20240414120954 93 0.0 0.0 0.00 0.00 0.00 59 963.0
20240414115946 93 0.0 0.0 0.00 0.00 0.00 58 962.8
20240414114940 93 0.0 0.0 0.00 0.00 0.00 58 962.6
20240414113934 93 0.0 0.0 0.00 0.00 0.00 58 962.6
20240414112928 93 0.0 0.0 0.00 0.00 0.00 55 962.6
20240414111922 94 0.0 0.0 0.00 0.00 0.00 52 962.4
20240414110915 95 0.0 0.0 0.00 0.00 0.00 50 962.3
20240414105910 95 0.0 0.0 0.00 0.00 0.00 49 962.2
20240414104904 95 0.0 0.0 0.00 0.00 0.00 51 962.2
20240414103857 95 0.0 0.0 0.00 0.00 0.00 51 962.1
20240414102851 95 0.0 0.0 0.00 0.00 0.00 53 962.2
20240414101830 95 0.0 0.0 0.00 0.00 0.00 52 962.0
20240414100808 96 0.0 0.0 0.00 0.00 0.00 53 962.1
20240414095801 96 0.0 0.0 0.00 0.00 0.00 50 962.0
20240414094755 96 0.0 0.0 0.00 0.00 0.00 49 962.0
20240414093749 96 0.0 0.0 0.00 0.00 0.00 47 962.2
20240414092743 97 0.0 0.0 0.00 0.00 0.00 46 962.2
20240414091736 97 0.0 0.0 0.00 0.00 0.00 45 962.3
20240414090730 97 0.0 0.0 0.00 0.00 0.00 47 962.3
20240414085723 96 0.0 0.0 0.00 0.00 0.00 46 962.3
20240414084717 96 0.0 0.0 0.00 0.00 0.00 48 962.4
20240414083711 97 0.0 0.0 0.00 0.00 0.00 47 962.5
20240414082705 95 0.0 0.0 0.00 0.00 0.00 50 962.6
20240414072902 96 0.0 0.0 0.00 0.00 0.00 48 963.9
20240414071856 95 0.0 0.0 0.00 0.00 0.00 48 964.0
20240414070850 96 0.0 0.0 0.00 0.00 0.00 49 964.3